FW0976 Weather Reports


time (UTC)temp
C
wind
direction
speed
KPH
gust
KPH
rain 1hr
cm
rain 24hr
cm
rain mn
cm
humidity
%
barometer
mb
20260506033435 16 10 0.0 3.2 0.00 0.00 0.00 82 1008.3
20260506032935 17 0 0.0 3.2 0.00 0.00 0.00 83 1008.3
20260506032437 17 350 0.0 3.2 0.00 0.00 0.00 82 1008.2
20260506031932 17 323 0.0 3.2 0.00 0.00 0.00 82 1008.1
20260506031434 17 334 0.0 3.2 0.00 0.00 0.00 82 1008.0
20260506030936 17 355 0.0 3.2 0.00 0.00 0.00 82 1007.8
20260506030435 17 306 0.0 3.2 0.00 0.00 0.00 82 1007.8
20260506025936 17 0 0.0 3.2 0.00 0.00 0.00 82 1007.7
20260506025449 18 342 0.0 3.2 0.00 0.00 0.00 82 1007.6
20260506024946 18 338 0.0 4.8 0.00 0.00 0.00 81 1007.3
20260506024407 18 332 0.0 4.8 0.00 0.00 0.00 81 1007.3
20260506023948 18 322 0.0 3.2 0.00 0.00 0.00 81 1007.2
20260506023446 18 348 0.0 3.2 0.00 0.00 0.00 81 1006.8
20260506021952 19 340 0.0 14.5 0.00 0.00 0.00 81 1006.5
20260506021412 19 18 0.0 14.5 0.00 0.00 0.00 80 1006.4
20260506020911 20 355 0.0 3.2 0.00 0.00 0.00 81 1006.4
20260506020413 20 355 0.0 3.2 0.00 0.00 0.00 80 1006.4
20260506015953 20 314 0.0 1.6 0.00 0.00 0.00 80 1006.1
20260506015412 20 23 0.0 3.2 0.00 0.00 0.00 80 1006.0
20260506014911 20 5 0.0 3.2 0.00 0.00 0.00 80 1006.0
20260506013942 20 22 0.0 1.6 0.00 0.00 0.00 79 1006.1
20260506013443 20 16 0.0 1.6 0.00 0.00 0.00 79 1006.0
20260506012935 20 336 0.0 3.2 0.00 0.00 0.00 79 1005.7
20260506012432 21 26 0.0 3.2 0.00 0.00 0.00 78 1005.6
20260506011928 21 18 0.0 3.2 0.00 0.00 0.00 78 1005.4
20260506011423 21 355 0.0 11.3 0.00 0.00 0.00 78 1006.0
20260506010918 21 342 0.0 11.3 0.00 0.00 0.00 77 1005.0
20260506010415 22 45 0.0 3.2 0.00 0.00 0.00 77 1005.0
20260506005912 22 11 0.0 3.2 0.00 0.00 0.00 77 1005.0
20260506005413 22 351 0.0 3.2 0.00 0.00 0.00 77 1005.1
20260506004906 22 30 0.0 1.6 0.00 0.00 0.00 76 1004.7
20260506004405 22 19 0.0 1.6 0.00 0.00 0.00 76 1004.9
20260506003944 23 24 0.0 3.2 0.00 0.00 0.00 75 1005.0
20260506003438 23 338 0.0 3.2 0.00 0.00 0.00 75 1004.9
20260506002933 23 306 0.0 1.6 0.00 0.00 0.00 75 1004.7
20260506002433 23 0 0.0 3.2 0.00 0.00 0.00 74 1004.8
20260506001926 23 336 0.0 3.2 0.00 0.00 0.00 73 1004.7
20260506000905 23 322 0.0 3.2 0.00 0.00 0.00 73 1004.7
20260505235924 24 348 0.0 9.7 0.00 0.00 0.00 72 1004.8
20260505235425 24 304 0.0 9.7 0.00 0.00 0.00 71 1004.7
20260505234922 25 321 0.0 3.2 0.00 0.00 0.00 71 1004.4
20260505234424 25 328 0.0 3.2 0.00 0.00 0.00 69 1004.2
20260505233924 25 329 0.0 14.5 0.00 0.00 0.00 68 1004.2
20260505233419 26 296 0.0 14.5 0.00 0.00 0.00 68 1004.1
20260505232915 26 312 1.6 12.9 0.00 0.00 0.00 66 1004.4
20260505231849 27 339 1.6 14.5 0.00 0.00 0.00 64 1003.9
20260505231430 27 295 0.0 3.2 0.00 0.00 0.00 63 1003.9
20260505230923 27 334 0.0 4.8 0.00 0.00 0.00 61 1003.6
20260505230424 28 355 0.0 4.8 0.00 0.00 0.00 59 1003.4
20260505225840 28 310 0.0 1.6 0.00 0.00 0.00 58 1003.2
20260505225342 28 325 0.0 3.2 0.00 0.00 0.00 57 1003.3
20260505224844 28 316 0.0 12.9 0.00 0.00 0.00 56 1003.4
20260505224426 29 310 0.0 12.9 0.00 0.00 0.00 56 1003.4
20260505223921 29 312 0.0 9.7 0.00 0.00 0.00 55 1003.2
20260505222902 30 336 0.0 4.8 0.00 0.00 0.00 55 1003.0
20260505222400 30 294 0.0 3.2 0.00 0.00 0.00 54 1002.8
20260505221424 31 281 0.0 11.3 0.00 0.00 0.00 56 1002.7
20260505220920 31 244 0.0 1.6 0.00 0.00 0.00 59 1002.6
20260505220420 31 229 0.0 1.6 0.00 0.00 0.00 59 1002.6
20260505215836 31 232 0.0 1.6 0.00 0.00 0.00 58 1002.7
20260505215338 31 228 0.0 1.6 0.00 0.00 0.00 58 1002.8
20260505214919 31 228 0.0 1.6 0.00 0.00 0.00 56 1002.9
20260505213858 32 184 0.0 3.2 0.00 0.00 0.00 56 1002.9
20260505213359 32 227 0.0 12.9 0.00 0.00 0.00 57 1002.9
20260505212858 31 247 0.0 12.9 0.00 0.00 0.00 57 1002.9
20260505212359 31 273 0.0 4.8 0.00 0.00 0.00 58 1003.0
20260505211851 31 194 0.0 11.3 0.00 0.00 0.00 57 1003.1
20260505210835 32 259 0.0 6.4 0.00 0.00 0.00 58 1003.2
20260505210338 31 130 0.0 3.2 0.00 0.00 0.00 58 1003.3
20260505205832 31 251 0.0 3.2 0.00 0.00 0.00 60 1003.2
20260505205418 31 241 0.0 4.8 0.00 0.00 0.00 59 1003.3
20260505204856 31 350 0.0 4.8 0.00 0.00 0.00 60 1003.3
20260505204353 31 182 0.0 6.4 0.00 0.00 0.00 62 1003.5
20260505203855 30 212 0.0 6.4 0.00 0.00 0.00 62 1003.3
20260505203354 30 227 0.0 3.2 0.00 0.00 0.00 61 1003.4
20260505202853 30 160 0.0 12.9 0.00 0.00 0.00 61 1003.6
20260505202352 30 244 0.0 12.9 0.00 0.00 0.00 63 1003.7
20260505201848 30 234 0.0 6.4 0.00 0.00 0.00 62 1003.7
20260505201351 30 225 0.0 6.4 0.00 0.00 0.00 61 1003.7
20260505200414 30 205 0.0 11.3 0.00 0.00 0.00 62 1003.7
20260505195354 30 189 0.0 3.2 0.00 0.00 0.00 64 1003.6
20260505194854 31 216 0.0 4.8 0.00 0.00 0.00 60 1003.7
20260505193918 31 176 0.0 12.9 0.00 0.00 0.00 65 1003.7
20260505192343 30 186 0.0 3.2 0.00 0.00 0.00 68 1003.7
20260505191838 29 187 0.0 6.4 0.00 0.00 0.00 67 1003.7
20260505190906 29 178 0.0 4.8 0.00 0.00 0.00 68 1003.5
20260505185332 29 178 0.0 8.0 0.00 0.00 0.00 68 1003.7
20260505184828 29 220 1.6 8.0 0.00 0.00 0.00 67 1003.8
20260505183855 28 209 0.0 4.8 0.00 0.00 0.00 69 1003.8
20260505183357 28 159 0.0 4.8 0.00 0.00 0.00 68 1003.8
20260505182851 28 182 0.0 3.2 0.00 0.00 0.00 71 1003.8
20260505181833 28 193 1.6 16.1 0.00 0.00 0.00 69 1004.2
20260505181333 28 113 0.0 12.9 0.00 0.00 0.00 68 1004.1
20260505180829 28 235 0.0 4.8 0.00 0.00 0.00 68 1003.9
20260505180333 28 271 0.0 4.8 0.00 0.00 0.00 68 1003.9
20260505175827 28 177 1.6 14.5 0.00 0.00 0.00 72 1003.8
20260505175329 28 219 1.6 16.1 0.00 0.00 0.00 72 1003.8
20260505174908 27 232 1.6 16.1 0.00 0.00 0.00 72 1003.8
20260505174327 27 139 1.6 16.1 0.00 0.00 0.00 72 1003.9
20260505173347 27 109 0.0 3.2 0.00 0.00 0.00 73 1003.9
20260505172847 27 185 1.6 9.7 0.00 0.00 0.00 74 1003.9
20260505172348 26 143 0.0 9.7 0.00 0.00 0.00 74 1003.8
20260505171845 26 211 0.0 3.2 0.00 0.00 0.00 75 1004.2
20260505171348 26 175 0.0 4.8 0.00 0.00 0.00 75 1003.6
20260505170845 26 171 1.6 4.8 0.00 0.00 0.00 75 1004.2
20260505170347 26 188 0.0 3.2 0.00 0.00 0.00 75 1003.9
20260505165841 26 194 0.0 4.8 0.00 0.00 0.00 75 1003.9
20260505164902 26 137 0.0 3.2 0.00 0.00 0.00 76 1003.7
20260505164318 25 145 0.0 9.7 0.00 0.00 0.00 77 1004.3
20260505163858 25 190 0.0 9.7 0.00 0.00 0.00 76 1003.5
20260505163357 25 108 0.0 8.0 0.00 0.00 0.00 76 1003.6
20260505162854 25 228 0.0 8.0 0.00 0.00 0.00 76 1004.5
20260505162356 26 183 0.0 6.4 0.00 0.00 0.00 75 1004.4
20260505161856 26 175 1.6 12.9 0.00 0.00 0.00 76 1003.9
20260505161355 26 192 1.6 12.9 0.00 0.00 0.00 75 1003.8
20260505160849 26 282 0.0 8.0 0.00 0.00 0.00 76 1003.8
20260505160343 26 153 0.0 16.1 0.00 0.00 0.00 76 1003.7
20260505153319 25 140 0.0 6.4 0.00 0.00 0.00 79 1003.6
20260505152855 25 165 0.0 3.2 0.00 0.00 0.00 79 1003.5
20260505152352 25 217 0.0 3.2 0.00 0.00 0.00 79 1003.7
20260505151331 25 165 0.0 16.1 0.00 0.00 0.00 80 1003.8
20260505150823 25 180 0.0 16.1 0.00 0.00 0.00 80 1003.8
20260505150319 24 227 1.6 14.5 0.00 0.00 0.00 81 1003.9
20260505124853 21 116 0.0 3.2 0.00 0.00 0.00 89 1003.5
20260505124354 21 134 0.0 3.2 0.00 0.00 0.00 89 1003.4
20260505123852 21 209 0.0 3.2 0.00 0.00 0.00 89 1003.2
20260505123356 21 173 0.0 4.8 0.00 0.00 0.00 89 1003.2
20260505122854 21 131 0.0 4.8 0.00 0.00 0.00 89 1003.3
20260505122314 21 163 0.0 4.8 0.00 0.00 0.00 91 1003.2
20260505121853 21 147 0.0 3.2 0.00 0.00 0.00 91 1003.1
20260505121355 21 177 0.0 1.6 0.00 0.00 0.00 91 1003.2
20260505120853 21 171 0.0 1.6 0.00 0.00 0.00 91 1003.1
20260505120314 21 161 0.0 4.8 0.00 0.00 0.00 91 1003.1
20260505115341 20 133 0.0 1.6 0.00 0.00 0.00 91 1002.9
20260505114325 21 157 0.0 8.0 0.00 0.00 0.00 91 1002.9
20260505113822 21 128 0.0 3.2 0.00 0.00 0.00 89 1002.8
20260505113321 21 134 0.0 4.8 0.00 0.00 0.00 89 1002.9
20260505112857 21 128 0.0 8.0 0.00 0.00 0.00 89 1002.8
20260505111825 21 137 0.0 3.2 0.00 0.00 0.00 89 1002.8
20260505111321 21 188 0.0 3.2 0.00 0.00 0.00 89 1002.8
20260505110823 21 138 0.0 3.2 0.00 0.00 0.00 89 1002.7
20260505110358 21 122 0.0 3.2 0.00 0.00 0.00 88 1002.6
20260505101837 21 146 0.0 4.8 0.00 0.00 0.00 89 1003.0
20260505101331 21 158 0.0 3.2 0.00 0.00 0.00 89 1002.9
20260505095747 21 182 0.0 8.0 0.00 0.00 0.00 89 1002.8
20260505095326 21 183 0.0 8.0 0.00 0.00 0.00 89 1002.9
20260505094820 21 128 0.0 8.0 0.00 0.00 0.00 89 1003.0
20260505094317 21 126 0.0 3.2 0.00 0.00 0.00 89 1003.0
20260505093814 21 131 0.0 3.2 0.00 0.00 0.00 89 1002.9
20260505093317 21 188 0.0 3.2 0.00 0.00 0.00 89 1003.1
20260505092815 21 127 0.0 9.7 0.00 0.00 0.00 89 1003.3
20260505092314 21 136 0.0 9.7 0.00 0.00 0.00 89 1003.2
20260505091813 20 183 0.0 4.8 0.00 0.00 0.00 89 1003.2
20260505091311 21 121 0.0 11.3 0.00 0.00 0.00 89 1003.3
20260505090807 20 123 0.0 11.3 0.00 0.00 0.00 89 1003.2
20260505085753 21 150 0.0 11.3 0.00 0.00 0.00 89 1003.4
20260505084814 21 123 0.0 3.2 0.00 0.00 0.00 88 1003.1
20260505084314 21 158 0.0 3.2 0.00 0.00 0.00 88 1003.3
20260505083812 21 130 0.0 3.2 0.00 0.00 0.00 88 1003.3
20260505083313 21 150 0.0 3.2 0.00 0.00 0.00 88 1003.3
20260505082813 21 118 0.0 3.2 0.00 0.00 0.00 88 1003.2
20260505082314 21 156 0.0 3.2 0.00 0.00 0.00 88 1003.2
20260505081251 21 139 0.0 4.8 0.00 0.00 0.00 87 1003.3
20260505080750 21 198 0.0 8.0 0.00 0.00 0.00 87 1003.4
20260505080247 21 194 0.0 8.0 0.00 0.00 0.00 87 1003.5
20260505075743 21 123 0.0 4.8 0.00 0.00 0.00 87 1003.6
20260505074806 21 188 0.0 4.8 0.00 0.00 0.00 86 1003.7
20260505073747 21 150 0.0 3.2 0.00 0.00 0.00 86 1003.7
20260505072811 21 169 0.0 4.8 0.00 0.00 0.00 85 1004.1
20260505071752 21 142 0.0 6.4 0.00 0.00 0.00 85 1004.1
20260505071254 21 171 0.0 4.8 0.00 0.00 0.00 84 1003.9
20260505070750 21 164 0.0 4.8 0.00 0.00 0.00 84 1004.1
20260505070248 21 128 0.0 4.8 0.00 0.00 0.00 84 1004.3
20260505065744 21 196 0.0 3.2 0.00 0.00 0.00 84 1004.3
20260505065245 21 171 0.0 3.2 0.00 0.00 0.00 84 1004.4
20260505064739 21 171 0.0 3.2 0.00 0.00 0.00 84 1004.5
20260505064245 21 125 0.0 16.1 0.00 0.00 0.00 83 1004.5
20260505063742 21 111 0.0 16.1 0.00 0.00 0.00 83 1004.6
20260505062801 21 184 0.0 6.4 0.00 0.00 0.00 83 1004.5
20260505062259 21 128 0.0 11.3 0.00 0.00 0.00 83 1004.5
20260505061242 21 144 0.0 4.8 0.00 0.00 0.00 83 1004.6
20260505060304 21 151 0.0 4.8 0.00 0.00 0.00 82 1004.4
20260505055759 21 138 0.0 4.8 0.00 0.00 0.00 82 1004.5
20260505055259 21 183 0.0 4.8 0.00 0.00 0.00 82 1004.6
20260505054755 21 155 0.0 4.8 0.00 0.00 0.00 82 1004.7
20260505054255 21 117 0.0 4.8 0.00 0.00 0.00 82 1004.8
20260505053754 21 109 0.0 4.8 0.00 0.00 0.00 82 1004.8
20260505053252 21 126 0.0 4.8 0.00 0.00 0.00 82 1004.8
20260505052744 21 148 0.0 4.8 0.00 0.00 0.00 82 1004.9
20260505052242 21 179 0.0 4.8 0.00 0.00 0.00 81 1005.0
20260505050307 21 121 0.0 4.8 0.00 0.00 0.00 81 1005.1
20260505041755 22 163 0.0 4.8 0.00 0.00 0.00 79 1005.2
20260505041254 22 136 0.0 4.8 0.00 0.00 0.00 79 1005.2
20260505040753 22 162 0.0 4.8 0.00 0.00 0.00 79 1005.3
20260505040254 22 159 0.0 4.8 0.00 0.00 0.00 79 1005.3
20260505035231 22 115 0.0 3.2 0.00 0.00 0.00 78 1005.2
20260505034729 22 121 0.0 3.2 0.00 0.00 0.00 78 1005.2
20260505034227 22 156 0.0 3.2 0.00 0.00 0.00 78 1005.3
20260505033724 22 137 0.0 4.8 0.00 0.00 0.00 78 1005.3